CAPE
1 1 2 1 1 1 2 2 0 0 0 nan nan nan nan nan nan nan nan nan nan nan nan nan nan nan nan 1 2 2 3 2 1 1 1 1 2 2 5 8 8 10 8 5 5 2 0 nan nan nan 0 0 0 0 2 4 4 5 11 11 11 16 18 16 16 12 7 5 1 1 nan nan nan nan nan nan nan nan nan nan nan nan nan nan nan 0
0 1 1 2 2 1 1 3 0 0 0 0 nan nan nan nan nan nan nan nan nan nan nan nan nan nan nan 2 4 4 5 5 3 3 2 2 4 4 7 10 10 9 5 1 1 nan nan nan nan nan nan nan nan nan nan nan nan nan 0 1 1 2 3 4 4 4 1 0 nan nan nan nan nan nan nan nan nan nan nan nan nan nan nan nan nan 0
0 1 1 2 2 1 0 1 0 0 0 0 nan nan nan nan nan nan nan nan nan nan nan nan nan nan nan 3 6 6 7 6 6 6 4 5 6 6 9 11 11 8 3 1 1 nan nan nan nan nan nan nan nan nan nan nan nan nan nan nan nan nan nan nan nan nan nan nan nan nan nan nan nan nan nan nan nan nan nan nan nan nan nan nan nan 0
0 0 0 1 1 1 0 0 0 0 0 0 nan nan nan nan nan nan nan nan nan nan nan nan nan nan nan 2 9 9 10 9 8 8 7 7 10 10 13 11 11 8 4 1 1 nan nan nan nan nan nan nan nan nan nan nan nan nan nan nan nan nan nan nan nan nan nan nan nan nan nan nan nan nan nan nan nan nan nan nan nan nan nan nan nan nan
0 0 0 1 1 1 2 1 0 0 0 nan nan nan nan nan nan nan 0 nan nan nan nan nan nan nan nan 1 10 10 12 12 11 11 9 12 14 14 14 13 13 9 5 2 2 nan nan nan nan nan nan nan nan nan nan nan nan nan nan nan nan nan nan nan nan nan nan nan nan nan nan nan nan nan nan nan nan nan nan nan nan nan nan nan nan nan
0 0 nan nan nan nan 0 nan nan nan nan nan nan nan nan 0 0 0 nan nan nan nan nan nan nan nan nan nan 10 10 14 16 14 14 13 14 16 16 16 14 14 9 6 3 3 0 nan nan nan nan nan nan nan nan nan nan nan nan nan nan nan nan nan nan nan nan nan nan nan nan nan nan nan nan nan nan nan nan nan nan nan nan nan nan nan nan
nan 0 nan nan nan nan 0 nan nan nan nan nan nan nan nan nan nan nan nan nan nan nan nan nan nan nan nan nan 8 8 15 17 15 15 13 16 16 16 19 18 18 12 7 3 3 1 0 nan nan nan nan nan nan nan nan nan nan nan nan nan nan nan nan nan nan nan nan nan nan nan nan nan nan nan nan nan nan nan nan nan nan nan nan nan nan nan
nan nan nan 0 0 0 nan nan 0 0 nan nan nan nan nan nan nan nan 0 0 0 nan nan nan nan nan nan nan nan nan 0 2 5 5 9 14 15 15 16 20 20 18 10 6 6 3 1 nan nan nan nan nan nan nan nan nan nan nan nan nan nan nan nan nan nan nan nan nan nan nan nan nan nan nan nan nan nan nan nan nan nan nan nan nan nan nan
nan nan nan nan nan nan nan nan 1 1 nan nan nan nan nan nan nan nan nan nan nan nan nan nan nan nan nan nan nan nan 1 4 3 3 5 4 4 4 13 19 19 16 11 7 7 3 1 nan nan nan nan nan nan nan nan nan nan nan nan nan nan nan nan nan nan nan nan nan nan nan nan nan nan nan nan nan nan nan nan nan nan nan nan nan nan nan
nan nan nan nan nan nan nan nan 1 1 0 nan nan nan nan nan nan nan nan nan nan nan nan nan nan nan nan nan nan nan nan nan nan nan 2 nan 19 19 14 13 13 10 8 7 7 2 0 nan nan nan nan nan nan nan nan nan nan nan nan nan nan nan nan nan nan nan nan nan nan nan nan nan nan nan nan nan nan nan nan nan nan nan nan nan nan nan
nan 0 nan 0 0 0 0 nan nan nan nan 0 nan nan 0 nan nan nan nan nan nan nan nan nan nan nan nan nan nan nan nan nan nan nan nan nan nan nan 5 4 4 7 7 3 3 1 0 nan nan nan nan nan nan nan nan nan nan nan nan nan nan nan nan nan nan nan nan nan nan nan nan nan nan nan nan nan nan nan nan nan nan nan nan nan nan nan
nan nan nan nan nan nan nan nan nan nan nan nan 0 0 0 0 nan nan nan nan nan nan nan nan nan nan nan nan nan nan nan nan nan nan nan nan nan nan nan nan nan 3 1 0 0 nan nan nan nan nan nan nan nan nan nan nan nan nan nan nan nan nan nan nan nan nan nan nan nan nan nan nan nan nan nan nan nan nan nan nan nan nan nan nan nan nan
nan nan nan nan nan nan nan nan nan nan nan nan nan nan nan nan nan nan nan nan nan nan nan nan nan nan nan nan nan nan nan nan nan nan nan nan nan nan nan nan nan nan nan nan nan nan nan nan nan nan nan nan nan nan nan nan nan nan nan nan nan nan nan nan nan nan nan nan nan nan nan nan nan nan nan nan nan nan nan nan nan nan nan nan nan nan
nan nan nan nan nan nan nan nan nan nan nan nan nan nan nan nan nan nan nan nan nan nan nan nan nan nan nan nan nan nan nan nan nan nan nan nan nan nan nan nan nan nan nan nan nan nan nan nan nan nan nan nan nan nan nan nan nan nan nan nan nan nan nan nan nan nan nan nan nan nan nan nan 0 0 0 nan nan nan nan nan nan nan nan nan nan nan
nan nan nan nan nan 0 0 nan nan nan nan nan nan nan nan nan nan nan nan nan nan nan nan nan nan nan nan nan nan nan nan nan nan nan nan nan nan nan nan nan nan nan nan nan nan nan nan nan nan nan nan nan nan nan nan nan nan nan nan nan nan nan nan nan nan nan nan nan nan nan nan nan 0 0 0 0 nan nan nan nan nan nan nan nan nan nan
nan nan nan nan nan 0 nan nan nan nan nan nan nan nan nan nan nan nan nan nan nan nan nan nan nan nan nan nan nan nan nan nan nan nan nan nan nan nan nan nan nan nan nan nan nan nan nan nan nan nan nan nan nan nan nan nan nan nan nan nan nan nan nan nan nan nan nan nan nan nan nan 0 0 0 0 0 0 0 nan nan nan nan nan nan nan nan
nan nan nan nan nan nan nan nan nan nan nan nan nan nan nan nan nan nan nan nan nan nan nan nan nan nan 0 nan nan nan nan nan nan nan nan nan nan nan nan nan nan nan nan nan nan nan nan nan nan nan nan nan nan nan nan nan nan nan nan nan nan nan nan 0 0 0 nan nan nan nan 0 0 0 0 0 0 0 0 nan nan nan nan nan nan nan nan
nan nan nan nan nan nan nan nan nan nan nan nan nan nan nan nan nan nan nan nan nan nan nan nan nan nan nan nan nan nan nan nan nan nan nan nan nan nan nan nan nan nan nan nan nan nan nan nan nan nan nan nan nan nan nan nan nan nan nan nan nan 0 1 1 1 1 0 0 0 0 0 0 1 1 0 0 0 0 nan nan nan nan nan nan nan nan
nan nan nan nan nan nan nan nan nan nan nan nan nan nan nan nan nan nan nan nan nan nan nan nan nan nan nan nan nan nan nan nan nan nan nan nan nan nan nan nan nan nan nan nan nan nan nan nan nan nan nan nan nan nan nan nan nan nan nan nan nan 1 1 1 1 1 0 0 0 0 1 1 1 1 1 1 0 0 nan nan nan nan nan nan nan nan
nan nan nan nan nan nan nan nan nan nan nan nan nan nan nan nan nan nan nan nan nan nan nan nan nan nan nan nan nan nan nan nan nan nan nan nan nan nan nan nan nan nan nan nan nan nan nan nan nan nan nan nan nan nan nan nan nan nan nan 1 1 1 2 2 2 2 0 nan 0 0 1 1 1 1 1 1 0 0 0 nan nan nan nan nan nan nan
nan nan nan nan nan nan nan nan nan nan nan nan nan nan nan nan nan nan nan nan nan nan nan nan nan nan nan nan nan nan nan nan nan nan nan nan nan nan nan nan nan nan nan nan nan nan nan nan nan nan nan nan nan nan nan nan nan nan nan 1 1 2 2 2 2 1 nan nan 0 0 1 2 2 2 1 1 1 1 0 0 0 0 nan nan nan nan
nan 0 nan nan nan nan nan nan nan nan nan nan nan nan nan nan nan nan nan nan nan nan nan nan nan nan nan nan nan nan nan nan nan nan nan nan nan nan nan nan nan nan nan nan nan nan nan nan nan nan nan nan nan nan nan nan nan nan nan 0 0 1 2 2 2 0 nan nan 1 1 2 2 1 1 0 0 0 0 nan nan nan nan nan nan nan nan
nan nan nan 0 0 nan nan nan nan nan nan nan nan nan nan nan nan nan nan nan nan nan nan nan nan nan nan nan nan nan nan nan nan nan nan nan nan nan nan nan nan nan nan nan nan nan nan nan nan nan nan nan nan nan nan nan nan nan nan nan nan 1 2 2 2 nan nan nan 1 1 2 1 1 1 0 nan nan nan nan nan nan nan nan nan nan nan
nan nan nan nan nan nan nan nan nan nan nan nan nan nan nan nan nan nan nan nan nan nan nan nan nan nan nan nan nan nan nan nan nan nan nan nan nan nan nan nan nan nan nan nan nan nan nan nan nan nan nan nan nan nan nan nan nan nan nan nan nan 1 2 2 2 nan nan nan 2 2 2 1 0 0 nan nan nan nan nan nan nan nan nan nan nan nan
nan nan nan nan nan nan nan nan nan nan nan nan nan nan nan nan nan nan nan nan nan nan nan nan nan nan nan nan nan nan nan nan nan nan nan nan nan nan nan nan nan nan nan nan nan nan nan nan nan nan nan nan nan nan nan nan nan nan nan nan nan 0 2 2 2 0 nan 1 2 2 2 1 1 1 0 nan nan nan nan nan nan nan nan nan nan nan
nan nan nan nan nan nan nan nan nan nan nan nan nan nan nan nan nan nan nan nan nan nan nan nan nan nan nan nan nan nan nan nan nan nan nan nan nan nan nan nan nan nan nan nan nan nan nan nan nan nan nan nan nan nan nan nan nan nan nan nan nan 0 3 3 3 1 2 3 3 3 2 2 1 1 0 0 nan nan nan nan nan nan nan nan nan nan
nan nan nan nan nan nan nan nan nan nan nan nan nan nan nan nan nan nan nan nan nan nan nan nan nan nan nan nan nan nan nan nan nan nan nan nan nan nan nan nan nan nan nan nan nan nan nan nan nan nan nan nan nan nan nan nan nan nan nan nan nan 1 4 4 4 3 4 4 4 4 3 2 1 1 1 0 0 0 nan nan nan nan nan nan nan nan
nan nan nan nan nan nan nan nan 0 0 0 0 nan nan nan nan nan nan nan nan nan nan nan nan nan nan nan nan nan nan nan nan nan nan nan nan nan nan nan nan nan nan nan nan nan nan nan nan nan nan nan nan nan nan nan nan nan nan nan nan nan 1 4 5 5 5 4 4 3 3 3 2 1 1 1 0 nan nan nan nan nan nan nan nan nan nan
nan nan nan nan nan nan 1 3 4 4 3 2 0 0 nan nan nan nan nan nan nan nan nan nan nan nan nan nan nan nan nan nan nan nan nan nan nan nan nan nan nan nan nan nan nan nan nan nan nan nan nan nan nan nan nan nan nan nan nan nan nan 1 5 6 6 5 3 3 3 3 2 1 1 1 0 nan nan nan nan nan nan nan nan nan nan nan
0 0 0 1 1 2 3 3 6 6 6 4 2 2 nan nan nan nan nan nan nan nan nan nan nan nan nan nan nan nan nan nan nan nan nan nan nan nan nan nan nan nan nan nan nan nan nan nan nan nan nan nan nan nan nan nan nan nan nan nan nan 3 5 6 6 5 4 3 2 2 1 0 0 0 nan nan nan nan nan nan nan nan nan nan nan nan
nan 0 nan 1 1 1 0 0 4 4 9 9 5 5 1 nan nan nan nan nan nan nan nan nan nan nan nan nan nan nan nan nan nan nan nan nan nan nan nan nan nan nan nan nan nan nan nan nan nan nan nan nan nan nan nan nan nan nan nan nan nan 5 7 5 5 3 2 2 1 1 0 nan nan nan nan nan nan nan nan nan nan nan nan nan nan nan
nan nan nan 0 0 nan nan nan nan nan nan nan nan nan nan nan nan nan nan nan nan nan nan nan nan nan nan nan nan nan nan nan nan nan nan nan nan nan nan nan nan nan nan nan nan nan nan nan nan nan nan nan nan nan nan nan nan nan nan nan nan nan nan nan nan nan nan nan nan nan nan nan nan nan nan nan nan nan nan nan nan nan nan nan nan nan
nan nan nan nan nan nan nan nan nan nan nan nan nan nan nan nan nan nan nan nan nan nan nan nan nan nan nan nan nan nan nan nan nan nan nan nan nan nan nan nan nan nan nan nan nan nan nan nan nan nan nan nan nan nan nan nan nan nan nan nan nan nan nan nan nan nan nan nan nan nan nan nan nan nan nan nan nan nan nan nan nan nan nan nan nan nan
nan nan nan nan nan nan nan nan nan nan nan nan nan nan nan nan nan nan nan nan nan nan nan nan nan nan nan nan nan nan nan nan nan nan nan nan nan nan nan nan nan nan nan nan nan nan nan nan nan nan nan nan nan nan nan nan nan nan nan nan nan nan nan nan nan nan nan nan nan nan nan nan nan nan nan nan nan nan nan nan nan nan nan nan nan nan
nan nan nan nan nan nan nan nan nan nan nan nan nan nan nan nan nan nan nan nan nan nan nan nan nan nan nan nan nan nan nan nan nan nan nan nan nan nan nan nan nan nan nan nan nan nan nan nan nan nan nan nan nan nan nan nan nan nan nan nan nan nan nan nan nan nan nan nan nan nan nan nan nan nan nan nan nan nan nan nan nan nan nan nan nan nan
nan nan nan nan nan nan nan nan nan nan nan nan nan nan nan nan nan nan nan nan nan nan nan nan nan nan nan nan nan nan nan nan nan nan nan nan nan nan nan nan nan nan nan nan nan nan nan nan nan nan nan nan nan nan nan nan nan nan nan nan nan nan nan nan nan nan nan nan nan nan nan nan nan nan nan nan nan nan nan nan nan nan nan nan nan nan
nan nan nan nan nan nan nan nan nan nan nan nan nan nan nan nan nan nan nan nan nan nan nan nan nan nan nan nan nan nan nan nan nan nan nan nan nan nan nan nan nan nan nan nan nan nan nan nan nan nan nan nan nan nan nan nan nan nan nan nan nan nan nan nan nan nan nan nan nan nan nan nan nan nan nan nan nan nan nan nan nan nan nan nan nan nan
nan nan nan nan nan nan nan nan nan nan nan nan nan nan nan nan nan nan nan nan nan nan nan nan nan nan nan nan nan nan nan nan nan nan nan nan nan nan nan nan nan nan nan nan nan nan nan nan nan nan nan nan nan nan nan nan nan nan nan nan nan nan nan nan nan nan nan nan nan nan nan nan nan nan nan nan nan nan nan nan nan nan nan nan nan nan
nan nan nan nan nan nan nan nan nan nan nan nan nan nan nan nan nan nan nan nan nan nan nan nan nan nan nan nan nan nan nan nan nan nan nan nan nan nan nan nan nan nan nan nan nan nan nan nan nan nan nan nan nan nan nan nan nan nan nan nan nan nan nan nan nan nan nan nan nan nan nan nan nan nan nan nan nan nan nan nan nan nan nan nan nan nan
nan nan nan nan nan nan nan nan nan nan nan nan nan nan nan nan nan nan nan nan nan nan nan nan nan nan nan nan nan nan nan nan nan nan nan nan nan nan nan nan nan nan nan nan nan nan nan nan nan nan nan nan nan nan nan nan nan nan nan nan nan nan nan nan nan nan nan nan nan nan nan nan nan nan nan nan nan nan nan nan nan nan nan nan nan nan
nan nan nan nan nan nan nan nan nan nan nan nan nan nan nan nan nan nan nan nan nan nan nan nan nan nan nan nan nan nan nan nan nan nan nan nan nan nan nan nan nan nan nan nan nan nan nan nan nan nan nan nan nan nan nan nan nan nan nan nan nan nan nan nan nan nan nan nan nan nan nan nan nan nan nan nan nan nan nan nan nan nan nan nan nan nan
nan nan nan nan nan nan nan nan nan nan nan nan nan nan nan nan nan nan nan nan nan nan nan nan nan nan nan nan nan nan nan nan nan nan nan nan nan nan nan nan nan nan nan nan nan nan nan nan nan nan nan nan nan nan nan nan nan nan nan nan nan nan nan nan nan nan nan nan nan nan nan nan nan nan nan nan nan nan nan nan nan nan nan nan nan nan
nan nan nan nan nan nan nan nan nan nan nan nan nan nan nan nan nan nan nan nan nan nan nan nan nan nan nan nan nan nan nan nan nan nan nan nan nan nan nan nan nan nan nan nan nan nan nan nan nan nan nan nan nan nan nan nan nan nan nan nan nan nan nan nan nan nan nan nan nan nan nan nan nan nan nan nan nan nan nan nan nan nan nan nan nan nan
nan nan nan nan nan nan nan nan nan nan nan nan nan nan nan nan nan nan nan nan nan nan nan nan nan nan nan nan nan nan nan nan nan nan nan nan nan nan nan nan nan nan nan nan nan nan nan nan nan nan nan nan nan nan nan nan nan nan nan nan nan nan nan nan nan nan nan nan nan nan nan nan nan nan nan nan nan nan nan nan nan nan nan nan nan nan
nan nan nan nan nan nan nan nan nan nan nan nan nan nan nan nan nan nan nan nan nan nan nan nan nan nan nan nan nan nan nan nan nan nan nan nan nan nan nan nan nan nan nan nan nan nan nan nan nan nan nan nan nan nan nan nan nan nan nan nan nan nan nan nan nan nan nan nan nan nan nan nan nan nan nan nan nan nan nan nan nan nan nan nan nan nan
nan nan nan nan nan nan nan nan nan nan nan nan nan nan nan nan nan nan nan nan nan nan nan nan nan nan nan nan nan nan nan nan nan nan nan nan nan nan nan nan nan nan nan nan nan nan nan nan nan nan nan nan nan nan nan nan nan nan nan nan nan nan nan nan nan nan nan nan nan nan nan nan nan nan nan nan nan nan nan nan nan nan nan nan nan nan
nan nan nan nan nan nan nan nan nan nan nan nan nan nan nan nan nan nan nan nan nan nan nan nan nan nan nan nan nan nan nan nan nan nan nan nan nan nan nan nan nan nan nan nan nan nan nan nan nan nan nan nan nan nan nan nan nan nan nan nan nan nan nan nan nan nan nan nan nan nan nan nan nan nan nan nan nan nan nan nan nan nan nan nan nan nan
nan nan nan nan nan nan nan nan nan nan nan nan nan nan nan nan nan nan nan nan nan nan nan nan nan nan nan nan nan nan nan nan nan nan nan nan nan nan nan nan nan nan nan nan nan nan nan nan nan nan nan nan nan nan nan nan nan nan nan nan nan nan nan nan nan nan nan nan nan nan nan nan nan nan nan nan nan nan nan nan nan nan nan nan nan nan
nan nan nan nan nan nan nan nan nan nan nan nan nan nan nan nan nan nan nan nan nan nan nan nan nan nan nan nan nan nan nan nan nan nan nan nan nan nan nan nan nan nan nan nan nan nan nan nan nan nan nan nan nan nan nan nan nan nan nan nan nan nan nan nan nan nan nan nan nan nan nan nan nan nan nan nan nan nan nan nan nan nan nan nan nan nan
nan nan nan nan nan nan nan nan nan nan nan nan nan nan nan nan nan nan nan nan nan nan nan nan nan nan nan nan nan nan nan nan nan nan nan nan nan nan nan nan nan nan nan nan nan nan nan nan nan nan nan nan nan nan nan nan nan nan nan nan nan nan nan nan nan nan nan nan nan nan nan nan nan nan nan nan nan nan nan nan nan nan nan nan nan nan
nan nan nan nan nan nan nan nan nan nan nan nan nan nan nan nan nan nan nan nan nan nan nan nan nan nan nan nan nan nan nan nan nan nan nan nan nan nan nan nan nan nan nan nan nan nan nan nan nan nan nan nan nan nan nan nan nan nan nan nan nan nan nan nan nan nan nan nan nan nan nan nan nan nan nan nan nan nan nan nan nan nan nan nan nan nan
CIN
-0 -0 -0 -0 -0 -0 -0 -0 -1 -1 -0 nan nan nan nan nan nan nan nan nan nan nan nan nan nan nan nan -0 -0 -0 -0 -0 -0 -0 -0 -0 -0 -0 -0 -0 -0 -0 -0 -0 -0 -0 -1 nan nan nan -0 -1 -1 -1 -0 -0 -0 -0 -0 -0 -0 -0 -0 -0 -0 -0 -0 -0 -0 -0 nan nan nan nan nan nan nan nan nan nan nan nan nan nan nan -1
-0 -0 -0 -0 -0 -0 -0 -0 -0 -0 -0 -0 nan nan nan nan nan nan nan nan nan nan nan nan nan nan nan -0 -0 -0 -0 -0 -0 -0 -0 -0 -0 -0 -0 -0 -0 -0 -0 -0 -0 nan nan nan nan nan nan nan nan nan nan nan nan nan -0 -0 -0 -0 -0 -0 -0 -0 -0 -0 nan nan nan nan nan nan nan nan nan nan nan nan nan nan nan nan nan -1
-0 -0 -0 -0 -0 -0 -0 -0 -1 -1 -0 -0 nan nan nan nan nan nan nan nan nan nan nan nan nan nan nan -1 -0 -0 -0 -0 -0 -0 -0 -0 -0 -0 -0 -0 -0 -0 -0 -0 -0 nan nan nan nan nan nan nan nan nan nan nan nan nan nan nan nan nan nan nan nan nan nan nan nan nan nan nan nan nan nan nan nan nan nan nan nan nan nan nan nan -1
-0 -0 -0 -0 -0 -0 -1 -0 -1 -1 -1 -0 nan nan nan nan nan nan nan nan nan nan nan nan nan nan nan -1 -0 -0 -0 -0 -0 -0 -0 -0 -0 -0 -0 -0 -0 -0 -0 -0 -0 nan nan nan nan nan nan nan nan nan nan nan nan nan nan nan nan nan nan nan nan nan nan nan nan nan nan nan nan nan nan nan nan nan nan nan nan nan nan nan nan nan
-0 -0 -0 -0 -0 -0 -0 -1 -0 -0 -0 nan nan nan nan nan nan nan -0 nan nan nan nan nan nan nan nan -1 -0 -0 -0 -0 -0 -0 -0 -0 -0 -0 -0 -0 -0 -0 -0 -0 -0 nan nan nan nan nan nan nan nan nan nan nan nan nan nan nan nan nan nan nan nan nan nan nan nan nan nan nan nan nan nan nan nan nan nan nan nan nan nan nan nan nan
-0 -0 nan nan nan nan -0 nan nan nan nan nan nan nan nan -0 -0 -0 nan nan nan nan nan nan nan nan nan nan -0 -0 -0 -0 -0 -0 -0 -0 -0 -0 -0 -0 -0 -0 -0 -0 -0 -0 nan nan nan nan nan nan nan nan nan nan nan nan nan nan nan nan nan nan nan nan nan nan nan nan nan nan nan nan nan nan nan nan nan nan nan nan nan nan nan nan
nan -1 nan nan nan nan -0 nan nan nan nan nan nan nan nan nan nan nan nan nan nan nan nan nan nan nan nan nan -0 -0 -0 -0 -0 -0 -0 -0 -0 -0 -0 -0 -0 -0 -0 -0 -0 -0 -0 nan nan nan nan nan nan nan nan nan nan nan nan nan nan nan nan nan nan nan nan nan nan nan nan nan nan nan nan nan nan nan nan nan nan nan nan nan nan nan
nan nan nan -0 -0 -0 nan nan -1 -1 nan nan nan nan nan nan nan nan -0 -0 -0 nan nan nan nan nan nan nan nan nan -2 -1 -1 -1 -0 -0 -0 -0 -0 -0 -0 -0 -0 -0 -0 -0 -0 nan nan nan nan nan nan nan nan nan nan nan nan nan nan nan nan nan nan nan nan nan nan nan nan nan nan nan nan nan nan nan nan nan nan nan nan nan nan nan
nan nan nan nan nan nan nan nan -0 -0 nan nan nan nan nan nan nan nan nan nan nan nan nan nan nan nan nan nan nan nan -1 -1 -3 -3 -3 -4 -5 -5 -0 -0 -0 -0 -0 -0 -0 -0 -0 nan nan nan nan nan nan nan nan nan nan nan nan nan nan nan nan nan nan nan nan nan nan nan nan nan nan nan nan nan nan nan nan nan nan nan nan nan nan nan
nan nan nan nan nan nan nan nan -0 -0 -1 nan nan nan nan nan nan nan nan nan nan nan nan nan nan nan nan nan nan nan nan nan nan nan -0 nan -0 -0 -2 -1 -1 -0 -0 -0 -0 -0 -0 nan nan nan nan nan nan nan nan nan nan nan nan nan nan nan nan nan nan nan nan nan nan nan nan nan nan nan nan nan nan nan nan nan nan nan nan nan nan nan
nan -0 nan -0 -0 -1 -1 nan nan nan nan -1 nan nan -1 nan nan nan nan nan nan nan nan nan nan nan nan nan nan nan nan nan nan nan nan nan nan nan -5 -3 -3 -0 -0 -0 -0 -0 -0 nan nan nan nan nan nan nan nan nan nan nan nan nan nan nan nan nan nan nan nan nan nan nan nan nan nan nan nan nan nan nan nan nan nan nan nan nan nan nan
nan nan nan nan nan nan nan nan nan nan nan nan -0 -0 -0 -1 nan nan nan nan nan nan nan nan nan nan nan nan nan nan nan nan nan nan nan nan nan nan nan nan nan -0 -0 -0 -0 nan nan nan nan nan nan nan nan nan nan nan nan nan nan nan nan nan nan nan nan nan nan nan nan nan nan nan nan nan nan nan nan nan nan nan nan nan nan nan nan nan
nan nan nan nan nan nan nan nan nan nan nan nan nan nan nan nan nan nan nan nan nan nan nan nan nan nan nan nan nan nan nan nan nan nan nan nan nan nan nan nan nan nan nan nan nan nan nan nan nan nan nan nan nan nan nan nan nan nan nan nan nan nan nan nan nan nan nan nan nan nan nan nan nan nan nan nan nan nan nan nan nan nan nan nan nan nan
nan nan nan nan nan nan nan nan nan nan nan nan nan nan nan nan nan nan nan nan nan nan nan nan nan nan nan nan nan nan nan nan nan nan nan nan nan nan nan nan nan nan nan nan nan nan nan nan nan nan nan nan nan nan nan nan nan nan nan nan nan nan nan nan nan nan nan nan nan nan nan nan -0 -0 -0 nan nan nan nan nan nan nan nan nan nan nan
nan nan nan nan nan -0 -0 nan nan nan nan nan nan nan nan nan nan nan nan nan nan nan nan nan nan nan nan nan nan nan nan nan nan nan nan nan nan nan nan nan nan nan nan nan nan nan nan nan nan nan nan nan nan nan nan nan nan nan nan nan nan nan nan nan nan nan nan nan nan nan nan nan -0 -0 -0 -0 nan nan nan nan nan nan nan nan nan nan
nan nan nan nan nan -1 nan nan nan nan nan nan nan nan nan nan nan nan nan nan nan nan nan nan nan nan nan nan nan nan nan nan nan nan nan nan nan nan nan nan nan nan nan nan nan nan nan nan nan nan nan nan nan nan nan nan nan nan nan nan nan nan nan nan nan nan nan nan nan nan nan -0 -0 -0 -0 -0 -0 -0 nan nan nan nan nan nan nan nan
nan nan nan nan nan nan nan nan nan nan nan nan nan nan nan nan nan nan nan nan nan nan nan nan nan nan -0 nan nan nan nan nan nan nan nan nan nan nan nan nan nan nan nan nan nan nan nan nan nan nan nan nan nan nan nan nan nan nan nan nan nan nan nan -0 -0 -0 nan nan nan nan -0 -0 -0 -0 -0 -0 -0 -0 nan nan nan nan nan nan nan nan
nan nan nan nan nan nan nan nan nan nan nan nan nan nan nan nan nan nan nan nan nan nan nan nan nan nan nan nan nan nan nan nan nan nan nan nan nan nan nan nan nan nan nan nan nan nan nan nan nan nan nan nan nan nan nan nan nan nan nan nan nan -0 -0 -0 -0 -0 -0 -0 -0 -0 -0 -0 -0 -0 -0 -0 -0 -0 nan nan nan nan nan nan nan nan
nan nan nan nan nan nan nan nan nan nan nan nan nan nan nan nan nan nan nan nan nan nan nan nan nan nan nan nan nan nan nan nan nan nan nan nan nan nan nan nan nan nan nan nan nan nan nan nan nan nan nan nan nan nan nan nan nan nan nan nan nan -0 -0 -0 -0 -0 -0 -0 -0 -0 -0 -0 -0 -0 -0 -0 -0 -0 nan nan nan nan nan nan nan nan
nan nan nan nan nan nan nan nan nan nan nan nan nan nan nan nan nan nan nan nan nan nan nan nan nan nan nan nan nan nan nan nan nan nan nan nan nan nan nan nan nan nan nan nan nan nan nan nan nan nan nan nan nan nan nan nan nan nan nan -0 -0 -0 -0 -0 -0 -0 -0 nan -0 -0 -0 -0 -0 -0 -0 -0 -0 -0 -0 nan nan nan nan nan nan nan
nan nan nan nan nan nan nan nan nan nan nan nan nan nan nan nan nan nan nan nan nan nan nan nan nan nan nan nan nan nan nan nan nan nan nan nan nan nan nan nan nan nan nan nan nan nan nan nan nan nan nan nan nan nan nan nan nan nan nan -0 -0 -0 -0 -0 -0 -0 nan nan -0 -0 -0 -0 -0 -0 -0 -0 -0 -0 -0 -0 -0 -0 nan nan nan nan
nan -3 nan nan nan nan nan nan nan nan nan nan nan nan nan nan nan nan nan nan nan nan nan nan nan nan nan nan nan nan nan nan nan nan nan nan nan nan nan nan nan nan nan nan nan nan nan nan nan nan nan nan nan nan nan nan nan nan nan -0 -0 -0 -0 -0 -0 -0 nan nan -0 -0 -0 -0 -0 -0 -0 -0 -0 -0 nan nan nan nan nan nan nan nan
nan nan nan -7 -7 nan nan nan nan nan nan nan nan nan nan nan nan nan nan nan nan nan nan nan nan nan nan nan nan nan nan nan nan nan nan nan nan nan nan nan nan nan nan nan nan nan nan nan nan nan nan nan nan nan nan nan nan nan nan nan nan -0 -0 -0 -0 nan nan nan -0 -0 -0 -0 -0 -0 -0 nan nan nan nan nan nan nan nan nan nan nan
nan nan nan nan nan nan nan nan nan nan nan nan nan nan nan nan nan nan nan nan nan nan nan nan nan nan nan nan nan nan nan nan nan nan nan nan nan nan nan nan nan nan nan nan nan nan nan nan nan nan nan nan nan nan nan nan nan nan nan nan nan -0 -0 -0 -0 nan nan nan -0 -0 -0 -0 -0 -0 nan nan nan nan nan nan nan nan nan nan nan nan
nan nan nan nan nan nan nan nan nan nan nan nan nan nan nan nan nan nan nan nan nan nan nan nan nan nan nan nan nan nan nan nan nan nan nan nan nan nan nan nan nan nan nan nan nan nan nan nan nan nan nan nan nan nan nan nan nan nan nan nan nan -0 -0 -0 -0 -0 nan -0 -0 -0 -0 -0 -0 -0 -0 nan nan nan nan nan nan nan nan nan nan nan
nan nan nan nan nan nan nan nan nan nan nan nan nan nan nan nan nan nan nan nan nan nan nan nan nan nan nan nan nan nan nan nan nan nan nan nan nan nan nan nan nan nan nan nan nan nan nan nan nan nan nan nan nan nan nan nan nan nan nan nan nan -0 -0 -0 -0 -0 -0 -0 -0 -0 -0 -0 -0 -0 -0 -0 nan nan nan nan nan nan nan nan nan nan
nan nan nan nan nan nan nan nan nan nan nan nan nan nan nan nan nan nan nan nan nan nan nan nan nan nan nan nan nan nan nan nan nan nan nan nan nan nan nan nan nan nan nan nan nan nan nan nan nan nan nan nan nan nan nan nan nan nan nan nan nan -0 -0 -0 -0 -0 -0 -0 -0 -0 -0 -0 -0 -0 -0 -0 -0 -0 nan nan nan nan nan nan nan nan
nan nan nan nan nan nan nan nan -0 -0 -0 -0 nan nan nan nan nan nan nan nan nan nan nan nan nan nan nan nan nan nan nan nan nan nan nan nan nan nan nan nan nan nan nan nan nan nan nan nan nan nan nan nan nan nan nan nan nan nan nan nan nan -0 -0 -0 -0 -0 -0 -0 -0 -0 -0 -0 -0 -0 -0 -0 nan nan nan nan nan nan nan nan nan nan
nan nan nan nan nan nan -0 -0 -0 -0 -0 -0 -0 -0 nan nan nan nan nan nan nan nan nan nan nan nan nan nan nan nan nan nan nan nan nan nan nan nan nan nan nan nan nan nan nan nan nan nan nan nan nan nan nan nan nan nan nan nan nan nan nan -0 -0 -0 -0 -0 -0 -0 -0 -0 -0 -0 -0 -0 -0 nan nan nan nan nan nan nan nan nan nan nan
-0 -0 -0 -0 -0 -0 -0 -0 -0 -0 -0 -0 -0 -0 nan nan nan nan nan nan nan nan nan nan nan nan nan nan nan nan nan nan nan nan nan nan nan nan nan nan nan nan nan nan nan nan nan nan nan nan nan nan nan nan nan nan nan nan nan nan nan -0 -0 -0 -0 -0 -0 -0 -0 -0 -0 -0 -0 -0 nan nan nan nan nan nan nan nan nan nan nan nan
nan -0 nan -0 -0 -0 -1 -2 -0 -0 -0 -0 -0 -0 -0 nan nan nan nan nan nan nan nan nan nan nan nan nan nan nan nan nan nan nan nan nan nan nan nan nan nan nan nan nan nan nan nan nan nan nan nan nan nan nan nan nan nan nan nan nan nan -0 -0 -0 -0 -0 -0 -0 -0 -0 -0 nan nan nan nan nan nan nan nan nan nan nan nan nan nan nan
nan nan nan -0 -0 nan nan nan nan nan nan nan nan nan nan nan nan nan nan nan nan nan nan nan nan nan nan nan nan nan nan nan nan nan nan nan nan nan nan nan nan nan nan nan nan nan nan nan nan nan nan nan nan nan nan nan nan nan nan nan nan nan nan nan nan nan nan nan nan nan nan nan nan nan nan nan nan nan nan nan nan nan nan nan nan nan
nan nan nan nan nan nan nan nan nan nan nan nan nan nan nan nan nan nan nan nan nan nan nan nan nan nan nan nan nan nan nan nan nan nan nan nan nan nan nan nan nan nan nan nan nan nan nan nan nan nan nan nan nan nan nan nan nan nan nan nan nan nan nan nan nan nan nan nan nan nan nan nan nan nan nan nan nan nan nan nan nan nan nan nan nan nan
nan nan nan nan nan nan nan nan nan nan nan nan nan nan nan nan nan nan nan nan nan nan nan nan nan nan nan nan nan nan nan nan nan nan nan nan nan nan nan nan nan nan nan nan nan nan nan nan nan nan nan nan nan nan nan nan nan nan nan nan nan nan nan nan nan nan nan nan nan nan nan nan nan nan nan nan nan nan nan nan nan nan nan nan nan nan
nan nan nan nan nan nan nan nan nan nan nan nan nan nan nan nan nan nan nan nan nan nan nan nan nan nan nan nan nan nan nan nan nan nan nan nan nan nan nan nan nan nan nan nan nan nan nan nan nan nan nan nan nan nan nan nan nan nan nan nan nan nan nan nan nan nan nan nan nan nan nan nan nan nan nan nan nan nan nan nan nan nan nan nan nan nan
nan nan nan nan nan nan nan nan nan nan nan nan nan nan nan nan nan nan nan nan nan nan nan nan nan nan nan nan nan nan nan nan nan nan nan nan nan nan nan nan nan nan nan nan nan nan nan nan nan nan nan nan nan nan nan nan nan nan nan nan nan nan nan nan nan nan nan nan nan nan nan nan nan nan nan nan nan nan nan nan nan nan nan nan nan nan
nan nan nan nan nan nan nan nan nan nan nan nan nan nan nan nan nan nan nan nan nan nan nan nan nan nan nan nan nan nan nan nan nan nan nan nan nan nan nan nan nan nan nan nan nan nan nan nan nan nan nan nan nan nan nan nan nan nan nan nan nan nan nan nan nan nan nan nan nan nan nan nan nan nan nan nan nan nan nan nan nan nan nan nan nan nan
nan nan nan nan nan nan nan nan nan nan nan nan nan nan nan nan nan nan nan nan nan nan nan nan nan nan nan nan nan nan nan nan nan nan nan nan nan nan nan nan nan nan nan nan nan nan nan nan nan nan nan nan nan nan nan nan nan nan nan nan nan nan nan nan nan nan nan nan nan nan nan nan nan nan nan nan nan nan nan nan nan nan nan nan nan nan
nan nan nan nan nan nan nan nan nan nan nan nan nan nan nan nan nan nan nan nan nan nan nan nan nan nan nan nan nan nan nan nan nan nan nan nan nan nan nan nan nan nan nan nan nan nan nan nan nan nan nan nan nan nan nan nan nan nan nan nan nan nan nan nan nan nan nan nan nan nan nan nan nan nan nan nan nan nan nan nan nan nan nan nan nan nan
nan nan nan nan nan nan nan nan nan nan nan nan nan nan nan nan nan nan nan nan nan nan nan nan nan nan nan nan nan nan nan nan nan nan nan nan nan nan nan nan nan nan nan nan nan nan nan nan nan nan nan nan nan nan nan nan nan nan nan nan nan nan nan nan nan nan nan nan nan nan nan nan nan nan nan nan nan nan nan nan nan nan nan nan nan nan
nan nan nan nan nan nan nan nan nan nan nan nan nan nan nan nan nan nan nan nan nan nan nan nan nan nan nan nan nan nan nan nan nan nan nan nan nan nan nan nan nan nan nan nan nan nan nan nan nan nan nan nan nan nan nan nan nan nan nan nan nan nan nan nan nan nan nan nan nan nan nan nan nan nan nan nan nan nan nan nan nan nan nan nan nan nan
nan nan nan nan nan nan nan nan nan nan nan nan nan nan nan nan nan nan nan nan nan nan nan nan nan nan nan nan nan nan nan nan nan nan nan nan nan nan nan nan nan nan nan nan nan nan nan nan nan nan nan nan nan nan nan nan nan nan nan nan nan nan nan nan nan nan nan nan nan nan nan nan nan nan nan nan nan nan nan nan nan nan nan nan nan nan
nan nan nan nan nan nan nan nan nan nan nan nan nan nan nan nan nan nan nan nan nan nan nan nan nan nan nan nan nan nan nan nan nan nan nan nan nan nan nan nan nan nan nan nan nan nan nan nan nan nan nan nan nan nan nan nan nan nan nan nan nan nan nan nan nan nan nan nan nan nan nan nan nan nan nan nan nan nan nan nan nan nan nan nan nan nan
nan nan nan nan nan nan nan nan nan nan nan nan nan nan nan nan nan nan nan nan nan nan nan nan nan nan nan nan nan nan nan nan nan nan nan nan nan nan nan nan nan nan nan nan nan nan nan nan nan nan nan nan nan nan nan nan nan nan nan nan nan nan nan nan nan nan nan nan nan nan nan nan nan nan nan nan nan nan nan nan nan nan nan nan nan nan
nan nan nan nan nan nan nan nan nan nan nan nan nan nan nan nan nan nan nan nan nan nan nan nan nan nan nan nan nan nan nan nan nan nan nan nan nan nan nan nan nan nan nan nan nan nan nan nan nan nan nan nan nan nan nan nan nan nan nan nan nan nan nan nan nan nan nan nan nan nan nan nan nan nan nan nan nan nan nan nan nan nan nan nan nan nan
nan nan nan nan nan nan nan nan nan nan nan nan nan nan nan nan nan nan nan nan nan nan nan nan nan nan nan nan nan nan nan nan nan nan nan nan nan nan nan nan nan nan nan nan nan nan nan nan nan nan nan nan nan nan nan nan nan nan nan nan nan nan nan nan nan nan nan nan nan nan nan nan nan nan nan nan nan nan nan nan nan nan nan nan nan nan
nan nan nan nan nan nan nan nan nan nan nan nan nan nan nan nan nan nan nan nan nan nan nan nan nan nan nan nan nan nan nan nan nan nan nan nan nan nan nan nan nan nan nan nan nan nan nan nan nan nan nan nan nan nan nan nan nan nan nan nan nan nan nan nan nan nan nan nan nan nan nan nan nan nan nan nan nan nan nan nan nan nan nan nan nan nan
nan nan nan nan nan nan nan nan nan nan nan nan nan nan nan nan nan nan nan nan nan nan nan nan nan nan nan nan nan nan nan nan nan nan nan nan nan nan nan nan nan nan nan nan nan nan nan nan nan nan nan nan nan nan nan nan nan nan nan nan nan nan nan nan nan nan nan nan nan nan nan nan nan nan nan nan nan nan nan nan nan nan nan nan nan nan
nan nan nan nan nan nan nan nan nan nan nan nan nan nan nan nan nan nan nan nan nan nan nan nan nan nan nan nan nan nan nan nan nan nan nan nan nan nan nan nan nan nan nan nan nan nan nan nan nan nan nan nan nan nan nan nan nan nan nan nan nan nan nan nan nan nan nan nan nan nan nan nan nan nan nan nan nan nan nan nan nan nan nan nan nan nan
nan nan nan nan nan nan nan nan nan nan nan nan nan nan nan nan nan nan nan nan nan nan nan nan nan nan nan nan nan nan nan nan nan nan nan nan nan nan nan nan nan nan nan nan nan nan nan nan nan nan nan nan nan nan nan nan nan nan nan nan nan nan nan nan nan nan nan nan nan nan nan nan nan nan nan nan nan nan nan nan nan nan nan nan nan nan
nan nan nan nan nan nan nan nan nan nan nan nan nan nan nan nan nan nan nan nan nan nan nan nan nan nan nan nan nan nan nan nan nan nan nan nan nan nan nan nan nan nan nan nan nan nan nan nan nan nan nan nan nan nan nan nan nan nan nan nan nan nan nan nan nan nan nan nan nan nan nan nan nan nan nan nan nan nan nan nan nan nan nan nan nan nan
Wind_Speed
1 1 2 3 3 2 2 3 4 3 3 2 2 2 2 2 2 2 3 2 3 3 4 5 6 7 9 12 14 15 15 15 14 13 12 11 10 9 8 8 7 7 8 8 8 8 8 9 9 10 10 10 10 9 9 9 8 8 8 8 8 9 9 9 8 8 8 8 8 7 7 7 6 6 5 5 5 5 5 5 4 4 4 4 5 5
1 1 1 3 3 2 2 3 3 3 3 3 3 3 3 3 3 3 3 3 3 2 3 4 6 7 8 10 12 15 15 14 14 13 12 11 10 9 9 8 8 9 9 9 9 9 9 9 9 10 10 10 10 10 10 10 10 10 10 10 10 10 9 9 9 9 8 8 8 7 7 6 6 5 5 5 5 4 4 4 4 4 4 4 5 5
2 1 1 2 3 2 2 3 3 3 3 3 3 3 4 4 3 3 3 3 3 3 2 3 4 6 7 8 11 14 14 14 13 13 12 11 10 10 9 9 9 9 9 9 9 9 9 8 8 9 9 10 10 10 10 10 10 10 10 10 10 10 10 10 9 9 9 8 8 7 6 6 5 5 5 5 4 4 4 4 4 4 4 5 5 5
2 2 2 2 2 2 2 2 3 3 3 3 3 3 4 3 3 3 2 2 2 3 3 3 3 4 5 6 9 12 14 14 13 13 12 11 10 10 9 9 9 10 9 9 9 8 8 8 8 8 8 9 9 9 9 9 10 10 10 10 10 10 10 9 9 8 8 7 7 6 6 5 5 5 5 4 4 4 4 4 4 4 4 4 5 5
3 2 2 2 2 2 2 2 2 3 3 3 3 3 4 3 3 2 2 2 3 3 3 3 3 3 4 4 7 11 13 13 13 13 12 11 10 10 10 10 10 10 10 9 9 8 8 7 7 7 7 8 8 8 8 9 9 9 9 9 9 9 9 8 8 7 7 6 6 5 5 4 4 4 4 4 4 4 4 3 3 3 3 4 4 5
2 2 2 2 1 1 1 2 2 3 3 3 3 4 4 3 3 2 2 2 3 2 2 2 3 3 3 4 7 10 12 13 13 12 12 11 10 10 10 10 10 10 10 9 9 8 8 7 7 7 7 7 7 8 8 8 8 8 8 8 8 8 8 7 7 6 6 5 5 4 4 4 4 4 4 4 4 4 3 3 3 3 3 3 4 4
2 2 2 2 1 1 1 1 2 2 2 2 3 3 3 3 3 3 3 2 2 2 2 2 2 2 2 3 6 9 11 12 12 12 11 11 10 10 10 10 10 10 10 9 9 9 8 7 7 7 7 7 7 7 7 7 7 8 8 8 7 7 6 6 6 5 5 4 4 3 3 3 3 3 3 3 3 3 3 3 3 3 3 3 3 3
2 2 2 2 2 1 1 1 1 2 3 3 3 3 3 2 2 3 3 2 2 2 2 2 2 2 2 3 4 6 7 8 8 9 9 9 9 10 10 10 10 10 10 10 9 9 8 8 7 7 7 7 7 7 7 7 7 7 7 7 6 6 5 5 4 4 4 3 3 2 2 2 2 2 2 3 3 3 3 3 3 3 3 2 2 3
3 3 2 2 2 2 2 1 2 2 2 3 3 3 3 3 2 2 2 2 2 1 2 2 2 2 2 2 3 3 4 5 5 5 6 6 6 7 9 10 10 11 10 10 9 9 8 8 8 7 7 7 7 7 7 7 6 6 6 5 5 4 4 3 3 3 3 2 2 2 2 1 1 1 2 2 2 2 3 3 3 3 3 2 2 2
4 4 3 3 2 2 2 2 2 2 2 2 2 3 3 3 3 3 3 2 1 1 1 2 2 2 2 2 2 3 4 4 4 4 4 4 4 6 8 8 9 10 11 10 10 9 8 8 8 8 8 7 7 7 7 6 6 5 4 4 3 3 2 2 2 2 2 2 1 1 1 1 1 1 1 1 1 2 2 2 3 3 3 2 2 2
3 3 3 3 2 2 2 2 2 2 2 2 2 2 2 3 3 4 4 3 2 1 1 1 2 2 2 2 2 3 3 4 4 5 5 5 4 5 6 7 9 10 11 10 9 9 8 8 8 8 8 8 7 7 6 5 5 4 3 2 2 2 1 1 1 1 1 1 1 1 1 1 1 1 1 1 1 1 1 1 2 2 3 2 2 2
3 3 3 3 2 2 2 2 2 2 2 3 3 2 2 3 3 4 5 4 4 3 2 1 1 1 1 1 2 2 3 3 3 3 4 4 4 4 4 5 7 8 9 9 8 8 8 8 8 8 8 7 7 6 6 5 4 3 2 1 1 1 1 1 0 0 0 1 1 1 1 1 1 1 1 1 1 1 1 1 1 2 2 2 2 2
2 2 3 3 3 2 2 2 2 2 2 3 4 5 4 4 3 3 3 4 4 3 3 2 1 1 1 1 1 2 2 3 3 3 3 3 2 2 2 3 4 4 5 5 5 5 6 7 7 7 7 7 6 6 5 4 3 2 1 1 2 2 2 2 1 1 0 0 1 1 1 1 1 2 2 2 2 2 2 2 2 2 2 2 2 2
3 3 3 3 3 3 3 3 4 4 4 5 5 5 4 4 4 3 3 3 3 3 3 2 2 1 1 1 1 0 2 3 3 3 3 2 2 2 2 2 3 2 3 3 3 3 4 4 5 5 6 6 6 5 4 4 3 2 2 2 2 3 3 2 2 1 1 0 0 1 1 1 1 2 2 2 3 3 3 3 2 2 2 2 2 2
4 4 4 4 4 4 4 4 5 5 5 5 4 3 3 4 4 4 4 4 4 3 3 3 2 1 0 0 1 1 0 2 3 3 3 2 2 1 1 2 2 2 2 2 2 2 3 3 3 3 4 5 5 4 4 3 2 2 2 3 3 3 3 3 2 2 1 0 0 1 1 1 1 1 2 3 3 3 3 3 3 3 3 3 3 3
4 4 5 5 5 5 5 5 5 5 5 5 4 4 4 5 5 5 5 5 4 4 3 3 3 2 1 1 1 1 1 2 3 4 4 3 1 1 1 1 2 2 2 2 2 2 2 2 2 2 2 4 4 4 3 2 2 3 3 3 4 4 4 3 3 2 1 1 0 0 1 1 1 1 2 3 3 3 4 4 3 3 4 4 4 4
4 4 5 5 5 5 5 5 5 5 4 4 4 4 5 5 5 5 5 5 4 4 4 4 4 3 2 2 2 2 2 2 3 4 4 3 2 0 1 1 2 3 2 2 2 2 2 2 2 2 2 3 4 3 3 2 3 3 3 4 4 4 4 4 3 2 2 1 1 1 1 1 1 1 2 2 3 3 3 3 3 3 3 4 4 4
4 4 4 5 5 5 5 5 5 5 4 4 4 4 3 4 4 4 4 5 5 5 5 4 4 4 3 3 4 4 4 3 3 4 5 4 3 1 1 0 1 2 3 2 2 2 2 2 2 2 2 3 4 3 3 3 3 4 4 4 5 5 4 4 3 3 2 2 2 1 1 2 2 2 2 2 3 3 3 3 3 3 3 3 3 4
4 4 4 4 4 4 5 5 5 5 5 5 4 4 4 4 4 4 4 4 5 5 5 5 4 4 3 3 4 5 4 3 3 4 5 4 3 2 1 1 1 2 3 3 3 2 2 2 2 3 3 3 3 3 4 4 4 4 5 5 5 5 5 4 4 3 3 2 2 2 2 2 2 3 3 3 3 3 3 3 3 3 3 3 3 3
4 4 5 4 4 4 5 5 6 6 6 5 5 4 4 4 4 5 4 5 5 4 4 4 4 3 2 3 3 4 4 3 3 3 4 4 3 3 2 2 2 2 2 2 2 2 2 2 2 2 3 3 3 4 4 4 4 5 5 5 5 5 5 5 4 3 3 3 2 3 3 3 3 3 3 3 3 3 3 3 3 3 2 2 2 2
4 4 5 4 4 4 4 5 5 6 7 7 6 5 5 5 5 5 5 5 5 4 4 4 3 2 2 3 3 4 4 4 3 3 3 3 3 2 2 2 2 2 2 2 2 2 2 2 2 2 3 3 4 4 4 4 5 5 5 5 5 5 5 5 4 4 3 3 3 3 3 3 4 4 3 3 3 3 3 3 3 3 2 2 2 2
3 3 4 4 4 4 4 4 5 7 8 8 7 6 5 5 5 5 5 5 5 5 4 2 2 2 3 3 3 3 2 3 3 3 3 3 3 3 2 2 2 2 2 2 2 2 2 2 2 3 4 4 5 5 5 5 5 5 5 5 5 5 5 5 4 4 4 3 4 4 4 4 4 4 4 3 3 3 3 3 2 2 2 2 2 2
3 2 3 3 3 3 2 3 4 6 7 7 7 6 5 5 6 6 5 5 5 4 3 3 3 4 4 3 2 1 1 1 1 2 3 3 3 3 3 2 2 2 2 2 2 2 2 2 2 3 4 4 5 4 4 4 4 4 4 5 5 5 5 5 5 4 4 4 4 4 4 4 4 4 4 3 3 3 2 2 2 2 2 1 1 1
4 3 2 2 2 2 2 3 4 4 5 5 4 4 4 4 4 4 4 4 4 4 4 4 4 4 4 3 2 1 1 0 0 1 2 3 3 3 2 3 3 2 2 2 2 2 2 2 2 2 3 4 4 4 4 4 4 4 4 5 5 5 5 5 5 5 5 5 5 5 5 5 4 4 4 3 3 3 2 2 2 1 1 1 1 1
2 1 0 1 2 3 4 5 5 5 5 5 4 4 4 4 4 4 4 4 5 5 5 4 4 3 3 3 2 2 1 1 1 1 2 2 2 2 2 2 3 3 2 2 2 2 2 2 2 2 2 3 4 4 4 4 4 4 4 5 5 5 6 6 6 5 5 5 5 5 5 5 4 4 4 3 3 3 2 2 1 1 1 1 0 0
1 2 3 3 4 6 8 9 9 10 9 7 6 5 5 6 6 5 5 4 5 5 5 4 4 3 3 3 3 2 2 1 1 1 1 2 2 2 1 1 2 2 3 2 2 2 2 2 2 2 2 3 4 4 4 4 4 4 4 5 5 6 6 6 6 6 6 6 5 5 5 5 5 4 4 3 3 3 2 2 1 1 0 0 1 1
5 6 6 6 7 8 10 11 13 13 13 12 10 9 7 7 6 6 5 5 5 5 5 5 4 4 3 3 3 3 3 2 2 1 1 1 3 3 2 1 2 2 3 2 2 2 3 3 3 3 3 3 3 4 4 4 4 4 5 6 6 6 7 7 7 7 6 6 6 5 5 5 5 4 4 3 3 3 2 2 1 1 1 1 2 2
7 7 7 7 8 9 10 12 13 14 15 15 15 13 10 7 6 6 6 6 6 6 5 5 5 4 4 3 3 3 3 3 3 2 2 1 2 3 2 2 2 2 3 3 2 2 2 2 2 2 2 2 3 3 3 4 4 5 6 6 7 7 7 7 7 7 7 6 6 6 5 5 5 4 4 3 3 3 2 2 1 1 2 2 2 2
8 8 8 8 8 9 10 11 12 13 15 15 15 13 9 7 6 6 6 6 6 6 6 5 5 4 4 3 3 3 3 4 4 3 2 2 2 3 3 3 2 2 3 2 2 1 1 1 2 2 2 3 3 2 2 3 4 4 6 7 8 8 8 8 7 7 6 6 6 5 5 5 4 4 4 3 3 3 2 2 1 2 2 2 2 1
7 8 8 8 8 8 8 8 9 11 14 15 14 12 8 5 4 4 5 6 6 6 6 5 5 4 4 4 3 3 3 4 4 4 3 2 2 3 3 3 3 3 3 3 2 1 1 1 2 2 2 3 3 2 2 2 3 3 4 6 7 7 8 8 7 7 6 6 5 5 4 4 4 3 3 3 3 2 2 2 1 2 2 2 1 1
6 7 6 7 6 6 6 6 6 8 10 11 11 8 5 3 3 3 4 5 5 5 5 4 4 5 5 4 4 3 3 4 5 5 4 3 3 3 4 3 3 3 2 2 2 2 2 2 2 2 2 2 2 2 2 2 2 2 3 3 4 5 7 7 7 7 6 6 5 5 4 3 3 3 2 2 2 2 2 2 2 2 2 2 1 1
6 6 6 6 6 5 5 5 5 5 6 6 5 4 3 2 2 2 3 4 4 3 3 4 4 4 4 4 3 3 2 3 5 6 5 3 2 3 3 3 3 2 1 1 1 1 2 2 2 2 2 2 2 2 2 2 2 2 2 2 2 3 5 6 6 6 5 5 5 4 4 3 2 2 2 1 2 2 2 2 2 2 2 2 2 2
5 5 5 5 5 5 5 4 4 4 4 4 3 3 2 2 2 2 2 2 2 2 3 4 4 4 4 3 2 2 2 3 5 7 7 4 2 2 3 3 3 3 2 1 0 0 1 2 2 2 2 2 2 2 2 2 1 1 2 2 2 3 4 5 5 5 4 4 4 4 3 3 2 2 2 2 3 3 3 4 4 3 3 2 2 2
5 5 5 5 5 5 5 5 4 4 4 4 3 3 3 2 2 3 2 2 2 2 2 3 4 4 4 3 2 2 2 3 5 8 7 4 3 3 3 3 4 3 3 2 1 1 1 2 2 2 2 2 2 2 2 2 2 1 0 1 2 3 3 3 3 3 4 3 3 3 3 3 3 3 4 4 4 5 5 5 5 5 5 3 2 2
5 5 5 5 5 5 5 5 4 4 4 4 3 3 3 3 3 2 3 3 3 3 2 2 2 2 2 3 3 3 3 3 5 7 6 4 3 3 3 3 4 4 4 3 2 2 2 2 3 3 3 2 2 2 2 2 2 1 0 1 1 2 2 3 3 3 3 3 3 2 2 3 3 3 4 4 5 5 6 6 6 6 7 6 5 3
5 5 5 5 5 5 5 5 5 4 4 3 3 3 3 3 3 3 3 3 3 4 4 4 3 2 2 1 2 3 4 4 6 7 6 4 3 3 3 3 4 4 4 3 3 2 2 2 3 3 3 3 2 2 2 2 2 2 1 1 1 1 2 2 2 2 2 2 2 2 2 2 2 3 3 4 5 5 5 6 6 7 7 7 7 6
5 5 5 5 5 5 5 5 5 4 4 3 3 3 3 3 3 3 3 3 3 4 4 5 4 4 4 3 3 3 4 5 5 5 5 4 3 3 3 3 4 4 4 4 3 3 3 3 3 3 3 2 2 2 3 3 3 2 2 2 2 2 2 1 1 1 1 2 2 2 2 2 2 2 2 3 4 4 4 6 6 7 8 8 8 8
5 5 5 5 4 4 5 5 4 4 4 4 4 4 4 4 4 4 4 4 4 4 4 4 4 5 7 7 6 5 5 6 5 5 4 3 3 2 3 3 3 4 3 3 3 3 3 3 3 3 2 2 2 3 3 3 3 3 3 3 2 2 2 2 2 1 1 1 2 2 2 2 1 1 2 2 2 2 3 4 5 6 7 7 8 9
5 5 5 5 5 4 4 4 4 4 4 4 4 4 4 5 5 5 4 4 4 5 5 5 5 5 6 7 8 8 7 6 5 5 4 3 2 2 3 3 3 3 3 2 3 3 3 3 3 3 3 2 2 2 3 3 3 3 3 3 2 2 2 3 3 3 2 2 2 2 2 1 1 1 1 1 1 2 2 3 4 5 5 4 5 6
4 4 5 5 5 4 4 4 5 5 5 5 5 5 5 5 5 4 4 4 4 5 5 5 5 5 5 6 7 7 7 5 5 5 4 3 2 2 3 3 3 3 2 2 2 2 3 2 2 3 3 2 2 2 3 3 3 4 4 3 2 2 3 3 3 3 3 2 2 2 2 1 1 2 2 2 2 2 2 2 3 3 3 2 2 3
5 4 4 4 4 4 5 5 5 5 5 5 5 4 4 4 4 4 4 4 4 4 4 5 5 5 5 5 6 6 6 5 5 5 3 4 3 3 3 3 3 3 3 2 2 2 2 2 2 2 2 2 3 3 3 3 4 5 5 3 3 3 3 4 4 3 3 3 2 2 2 2 2 2 2 3 3 3 3 2 2 2 2 2 1 2
6 5 5 4 4 4 4 5 6 6 6 5 5 4 4 4 4 4 4 3 3 3 3 3 4 4 5 4 4 5 5 4 4 4 4 4 4 3 3 3 3 2 3 2 2 2 1 1 1 1 1 2 2 2 2 3 4 4 4 3 3 3 3 4 4 3 3 3 2 2 3 2 2 3 3 3 3 3 3 2 2 2 2 1 1 1
5 5 4 5 5 5 6 6 6 5 5 4 4 3 3 3 4 4 4 4 4 3 3 3 4 4 4 4 4 3 3 3 4 4 4 4 4 3 3 3 3 3 2 3 2 2 1 1 0 0 1 1 2 2 3 3 3 3 3 3 3 2 2 2 3 3 3 3 2 2 2 2 2 2 2 2 2 2 2 2 3 3 3 2 2 2
5 5 5 5 5 5 5 5 5 4 4 4 4 4 3 3 4 4 4 4 4 4 3 3 3 3 4 4 4 3 3 3 3 4 4 4 4 3 3 3 3 2 2 2 2 2 2 1 1 0 1 1 1 1 2 3 3 3 3 3 3 3 2 2 3 3 2 2 3 3 3 2 2 2 2 1 1 1 2 2 2 3 3 3 2 2
5 5 5 5 5 5 5 5 5 4 4 4 4 4 4 4 4 4 4 4 4 4 3 3 3 3 3 3 3 3 3 2 2 3 3 4 4 4 3 2 2 2 1 1 2 2 2 2 1 1 1 1 1 1 1 2 2 3 3 4 3 2 2 2 3 3 3 3 3 3 3 2 2 1 1 1 1 2 2 2 3 3 3 3 3 3
5 5 5 5 5 5 6 5 5 5 4 4 4 4 4 4 4 4 4 4 4 4 3 3 3 3 4 4 4 3 3 2 2 2 2 2 2 2 2 2 2 2 1 1 0 0 1 1 2 2 2 1 1 1 1 1 2 2 3 3 3 2 1 1 2 3 3 3 3 3 3 3 2 1 1 2 2 2 2 3 3 3 3 3 3 3
5 6 6 5 5 5 5 5 5 5 5 5 5 4 4 4 4 4 4 4 4 4 4 3 3 3 4 4 4 4 4 4 3 3 2 2 2 2 2 2 2 2 2 2 2 2 2 2 1 1 2 2 2 2 2 2 2 2 2 3 3 3 2 2 2 2 3 3 3 3 4 3 2 2 2 2 2 2 2 3 3 3 3 3 3 3
6 6 6 6 6 6 6 6 5 5 5 5 5 4 4 4 5 5 4 4 4 4 4 3 3 3 3 4 4 5 5 5 4 4 4 3 3 2 2 2 2 2 2 2 2 2 2 2 2 1 0 2 2 3 3 3 3 2 2 3 3 3 3 3 3 3 3 2 3 3 3 3 2 2 2 2 2 2 2 2 3 3 3 3 3 3
6 6 6 6 6 6 6 6 6 6 6 5 5 5 4 5 6 6 4 4 4 4 4 4 4 3 3 3 4 5 5 5 5 5 4 4 3 3 3 2 2 2 2 1 1 1 1 1 1 2 2 2 2 2 3 3 3 3 3 2 2 2 2 2 2 3 3 3 3 3 2 2 2 2 2 2 2 2 2 2 2 3 3 3 3 3
6 6 6 6 6 6 6 6 6 6 6 6 6 5 4 4 4 4 4 4 4 4 4 4 4 4 3 4 4 4 5 5 5 5 5 4 4 4 4 3 3 3 2 2 1 1 0 1 2 3 5 5 4 3 2 2 3 3 3 2 2 2 2 2 2 3 3 3 3 2 2 1 1 1 1 1 1 1 1 2 2 2 3 3 3 3
7 6 6 6 6 6 6 6 6 6 6 6 6 6 5 5 4 4 4 4 4 4 4 4 4 3 3 4 4 4 4 4 5 5 5 5 5 5 5 4 4 4 3 3 2 2 2 2 2 3 5 8 8 7 3 2 2 2 3 3 2 2 2 2 2 3 4 3 3 3 2 1 1 1 1 1 1 1 2 2 2 2 3 3 3 3
Wind_Direction
92 106 115 134 140 148 168 169 164 157 152 145 142 138 127 104 81 67 66 87 113 129 136 136 137 138 139 141 142 141 141 139 138 137 136 137 137 138 139 137 133 126 118 110 101 94 90 85 83 83 85 84 85 87 87 87 87 87 86 87 88 88 87 86 85 83 80 77 74 70 65 59 52 44 37 35 34 35 36 36 29 18 6 356 349 346
118 115 130 151 153 154 164 171 168 160 153 148 144 136 126 113 93 66 45 44 54 82 119 131 136 139 141 142 143 143 142 140 138 137 137 139 140 141 141 139 133 125 118 111 105 99 93 87 84 81 80 78 78 77 76 75 74 73 72 72 72 72 71 70 69 67 65 62 60 57 53 49 42 35 29 27 28 29 29 28 21 11 359 350 343 339
149 145 155 159 160 160 160 170 165 156 148 143 140 136 131 119 102 77 53 42 38 43 66 108 129 137 140 142 144 144 143 140 138 138 139 141 143 145 145 141 136 130 124 119 113 107 100 94 89 85 82 80 78 76 74 73 71 69 68 67 65 64 62 60 59 57 55 53 50 47 42 38 31 24 19 18 18 19 21 19 13 5 356 346 339 334
155 159 163 159 161 162 159 158 150 140 130 128 130 130 125 110 95 78 61 58 53 49 46 69 103 125 135 140 144 144 143 140 139 140 141 144 147 148 148 145 141 137 132 127 121 114 107 102 96 91 87 84 81 79 76 74 72 70 69 67 64 62 59 56 55 53 50 48 44 39 33 27 20 14 9 7 7 8 10 9 6 359 351 342 335 329
159 159 157 153 152 151 142 135 130 126 116 113 112 108 99 90 85 78 65 62 62 59 49 54 72 97 121 136 143 145 143 141 141 142 144 148 150 151 151 149 146 143 138 133 128 122 116 110 104 99 94 90 86 84 81 78 76 73 71 68 65 62 58 55 52 50 48 44 39 32 25 17 11 5 0 357 356 356 357 356 354 350 344 336 330 326
154 151 148 144 134 120 107 112 119 121 115 102 92 87 84 85 86 83 74 67 66 63 57 53 58 72 99 128 142 145 143 143 143 144 147 151 153 155 155 152 150 147 143 138 133 128 123 119 113 108 102 98 94 91 87 83 79 75 72 69 66 62 58 53 50 47 44 40 35 28 20 11 3 356 350 347 345 344 343 342 339 335 331 327 324 323
138 134 133 120 106 98 98 110 123 129 127 114 101 93 90 88 86 85 83 80 78 75 69 60 57 61 78 116 134 140 141 142 144 146 150 153 156 158 157 155 152 149 146 142 138 134 130 126 121 116 111 107 102 98 93 87 82 77 73 69 66 62 57 53 48 43 39 36 32 26 18 8 359 350 343 341 338 336 333 328 323 318 316 316 317 318
139 138 137 126 114 108 110 121 136 142 141 134 127 120 112 98 90 87 87 87 88 89 89 78 67 62 67 99 120 131 138 142 144 148 152 156 159 160 160 159 156 152 149 145 142 139 135 132 128 123 119 114 109 103 97 90 84 79 74 70 66 62 57 51 45 40 34 31 28 25 21 12 1 351 343 340 337 334 329 323 316 310 305 306 307 310
151 151 152 147 143 140 137 141 149 154 147 143 141 140 136 128 118 105 95 91 91 95 105 104 95 84 71 88 105 120 131 135 139 145 154 159 163 165 165 162 158 155 152 149 146 143 141 138 134 130 125 119 113 106 99 93 88 83 77 73 68 63 57 50 42 34 26 22 21 21 24 20 15 5 354 347 342 335 330 324 318 313 310 307 307 307
155 154 152 152 152 152 149 148 150 151 149 144 142 144 144 144 140 135 126 121 110 98 104 115 116 110 95 89 94 103 109 106 101 100 113 121 154 169 168 163 159 155 153 152 150 148 146 143 139 135 129 123 116 109 103 98 93 88 83 78 74 68 61 52 40 27 13 9 10 16 26 34 35 32 21 6 352 341 333 330 329 327 323 321 317 317
157 154 149 148 150 152 143 137 136 137 141 135 132 135 145 153 153 151 151 150 146 133 106 98 107 114 117 108 104 101 100 95 86 79 76 78 108 144 152 153 153 153 153 152 151 151 150 147 144 139 133 127 121 115 109 104 99 95 92 90 89 89 85 72 47 18 355 354 1 14 30 42 52 59 64 54 33 5 350 349 347 345 339 334 332 335
157 152 148 146 146 143 131 117 112 120 137 142 148 158 173 176 171 164 161 158 156 151 134 99 68 64 85 106 118 119 115 111 101 90 76 72 78 95 121 138 145 148 150 149 148 148 149 149 146 142 136 132 127 123 119 114 111 110 112 120 128 135 136 135 136 21 330 341 357 18 34 47 60 75 91 95 94 85 63 38 22 9 353 346 345 353
155 148 146 147 150 149 139 134 135 146 166 174 177 179 179 178 176 170 160 155 153 150 138 120 84 41 20 29 87 125 130 123 114 104 90 77 74 83 106 120 131 139 142 138 134 134 141 144 144 141 138 135 133 131 129 128 129 135 150 163 168 168 165 167 173 183 222 337 16 33 40 49 63 82 98 103 103 100 89 77 61 41 16 5 5 13
155 148 149 156 161 162 159 159 164 172 184 189 189 183 173 167 165 162 149 142 139 134 126 119 109 81 23 6 1 62 135 130 122 112 102 86 72 71 104 119 121 122 124 120 113 111 118 126 132 136 138 138 137 137 140 142 149 163 180 182 181 177 175 175 175 178 183 162 48 48 51 57 71 89 103 104 102 97 90 81 72 59 45 34 32 34
162 158 162 170 173 174 171 175 181 185 187 189 187 176 154 155 160 162 154 146 139 130 121 117 114 107 85 29 335 318 187 144 138 130 125 105 71 42 69 123 123 117 111 112 108 100 96 98 107 121 133 139 140 142 147 156 171 185 188 188 185 181 178 177 176 175 173 163 112 76 71 74 84 97 106 105 100 94 87 79 71 63 55 48 44 43
169 168 174 178 180 180 178 181 187 190 187 185 182 173 159 162 166 167 160 151 144 139 140 140 142 148 174 179 234 267 254 169 152 145 141 130 105 29 339 137 133 125 112 110 108 103 92 88 93 107 123 134 139 142 149 166 181 187 190 189 186 183 180 178 177 177 177 172 158 131 113 104 103 106 108 106 100 94 86 78 71 63 57 51 47 44
177 181 186 185 186 184 178 182 188 191 183 181 181 178 170 169 168 165 159 149 147 151 163 163 166 171 177 178 196 216 228 191 163 151 146 143 138 118 317 168 144 137 125 118 115 116 116 109 103 108 126 138 141 147 160 177 187 192 193 191 188 185 182 181 181 181 180 178 176 170 155 141 128 120 114 110 103 97 90 82 73 65 58 53 49 45
187 190 194 194 191 185 175 180 186 188 178 178 177 174 165 161 159 158 155 152 156 165 174 178 181 181 175 176 181 187 198 197 173 155 149 148 145 141 285 245 153 139 133 130 128 126 126 124 129 138 145 150 155 162 175 188 194 195 195 193 190 188 186 186 184 183 181 181 181 179 173 162 150 139 128 119 112 106 99 91 81 73 64 59 55 51
195 194 197 201 196 187 176 180 182 181 176 176 170 162 154 152 153 155 159 162 167 172 176 182 188 192 188 173 161 161 178 193 179 159 153 151 146 145 190 206 166 144 135 135 132 128 124 120 128 138 144 152 162 174 185 193 196 198 198 196 193 191 189 188 186 183 180 182 185 185 179 168 158 149 140 129 123 117 111 104 97 87 75 67 60 55
199 198 200 201 198 191 186 184 182 178 175 169 162 157 159 158 160 163 166 170 174 177 177 182 188 189 171 133 129 140 164 177 173 160 154 146 143 148 177 186 172 155 142 130 124 122 125 121 123 132 146 158 171 183 193 197 198 198 199 198 196 194 192 188 184 181 179 182 186 186 179 168 158 148 140 132 126 121 115 110 104 96 87 76 66 60
206 204 203 200 198 197 195 186 178 172 168 160 157 157 164 164 167 171 171 170 172 177 181 184 181 161 111 114 126 141 157 164 165 159 149 141 142 151 173 185 178 163 149 130 122 123 128 128 131 143 161 171 181 189 196 198 199 199 199 198 197 195 192 186 182 178 179 184 187 183 173 162 152 143 135 128 122 117 111 107 102 97 90 82 73 65
218 211 205 203 204 204 200 178 165 160 156 154 158 165 170 169 171 173 170 169 171 175 176 153 107 80 80 101 117 136 155 167 168 161 144 148 152 158 165 180 178 166 154 133 125 127 133 132 140 158 173 178 183 190 196 198 199 199 199 199 198 195 190 183 178 177 181 185 184 178 166 157 148 141 134 127 121 116 111 105 101 96 91 83 74 65
242 231 217 209 207 203 180 141 139 144 147 154 163 170 169 170 172 171 168 167 162 150 125 99 82 74 75 84 90 101 147 203 184 164 149 162 162 157 155 167 171 168 161 130 125 131 136 136 145 159 169 176 182 188 194 196 197 199 200 201 199 195 188 181 178 178 181 184 180 172 162 154 148 142 136 132 127 123 117 111 105 98 91 85 74 59
242 242 234 212 187 152 112 112 120 131 141 149 152 153 150 154 153 150 145 138 124 111 104 101 96 89 83 90 97 114 187 251 242 187 170 166 153 141 145 159 167 166 150 122 122 132 137 140 144 151 159 171 178 184 190 195 198 201 205 205 202 196 188 181 178 178 181 180 176 169 160 155 150 146 142 138 136 133 130 124 116 106 96 86 72 54
244 255 276 129 124 122 119 126 132 137 138 135 127 119 114 112 108 102 98 101 105 109 114 114 113 113 113 119 130 150 188 210 231 216 190 154 128 119 139 159 165 159 136 115 117 130 138 143 144 148 154 167 176 183 189 195 203 209 214 213 208 199 190 183 180 179 180 178 174 168 162 158 155 152 150 147 145 143 142 137 129 119 105 86 56 342
69 69 75 92 108 120 127 135 141 144 143 137 131 125 120 115 110 106 106 114 122 129 131 135 139 141 138 140 150 160 175 193 224 238 217 137 122 120 139 162 158 143 125 118 126 140 150 152 153 155 161 168 176 182 188 198 209 218 224 222 215 204 194 186 182 181 181 178 175 171 168 165 163 161 159 156 154 152 151 148 144 138 140 207 238 236
97 99 101 107 115 124 133 140 144 146 146 144 142 140 136 132 129 131 140 147 150 150 152 156 155 149 143 151 156 159 162 178 200 226 233 142 127 128 147 164 154 135 123 127 142 159 167 163 160 160 162 160 168 176 188 199 212 224 231 229 221 210 198 190 186 184 183 181 179 177 175 174 172 170 167 164 162 161 161 159 162 178 215 237 236 224
107 110 114 118 124 131 137 144 147 149 149 148 148 147 146 145 148 154 163 161 160 160 166 166 160 154 153 159 155 150 155 176 191 205 223 166 134 130 145 160 159 146 132 126 134 152 163 159 152 147 145 144 151 165 181 197 212 224 231 230 223 213 201 192 188 186 184 183 182 181 181 180 179 176 174 172 172 172 173 175 185 209 234 239 234 221
108 110 114 119 126 132 138 144 148 150 151 150 151 152 154 155 160 164 164 160 161 166 174 171 165 157 152 146 138 138 157 178 185 190 198 169 137 128 138 153 160 153 134 123 120 128 152 157 147 136 134 140 144 155 174 193 208 221 228 226 220 211 199 191 186 184 182 181 180 179 180 179 179 178 177 178 179 182 186 194 211 230 244 243 240 229
111 111 111 117 122 128 134 139 145 149 151 151 153 155 159 163 166 164 157 159 165 172 176 171 162 153 143 135 132 143 173 180 178 176 181 169 147 135 138 152 161 159 144 134 131 141 166 166 154 142 138 145 148 155 172 188 201 213 220 220 214 204 192 184 179 175 173 171 169 168 168 169 169 170 173 177 182 189 197 209 234 256 266 260 253 241
127 124 122 123 124 125 127 132 138 143 147 149 151 153 156 161 161 158 154 163 171 176 174 164 156 150 148 144 149 162 179 170 167 169 177 171 153 140 145 153 161 165 160 148 147 152 161 161 154 146 142 148 155 163 173 182 194 204 206 202 194 185 174 169 165 162 159 157 156 154 151 151 150 153 162 172 185 198 212 226 248 271 287 287 278 263
137 134 132 130 129 127 126 127 129 134 138 141 141 139 131 130 133 141 150 163 170 172 161 150 148 150 156 160 163 163 159 152 160 167 174 167 146 136 145 150 155 161 163 149 149 155 151 151 149 149 149 157 162 167 170 175 190 202 193 164 149 147 153 152 152 151 149 150 148 146 144 142 143 149 167 187 208 221 231 239 251 267 288 297 297 289
136 132 129 128 126 126 125 126 127 129 131 130 127 120 110 109 111 115 124 137 147 148 142 141 145 151 161 162 151 131 118 137 158 167 169 156 137 132 143 146 149 151 144 124 18 107 123 128 133 142 153 160 163 163 161 165 178 197 184 150 138 139 148 149 150 150 153 153 152 152 154 156 168 185 201 216 227 235 241 244 249 255 267 286 296 296
134 131 129 128 128 128 128 128 129 131 132 130 127 122 114 109 105 101 95 86 87 100 120 136 145 153 161 155 134 111 110 137 159 166 165 150 136 135 142 147 150 150 149 151 152 125 94 111 123 134 144 153 158 160 158 159 161 164 161 137 141 148 155 159 161 162 163 162 162 166 170 177 192 206 215 223 229 235 240 243 247 249 252 258 269 282
140 140 139 137 136 135 133 133 133 133 131 129 125 122 118 112 104 95 83 71 62 59 63 85 107 132 153 148 140 134 135 147 162 166 161 148 138 136 142 152 155 156 156 159 158 146 124 127 135 139 139 145 154 162 164 157 150 139 92 103 135 150 156 164 169 170 168 167 171 175 177 184 196 207 215 222 228 233 240 244 247 249 249 250 252 257
150 150 149 147 144 142 140 139 137 133 129 125 120 117 115 110 101 89 77 70 66 64 60 55 50 46 48 91 120 131 138 146 157 162 159 148 139 137 143 155 159 159 159 162 162 156 143 142 145 147 146 148 154 161 163 154 147 141 141 153 161 160 155 160 166 171 171 176 180 183 182 182 189 199 210 219 226 233 241 247 250 251 250 250 249 249
158 157 155 153 150 147 145 143 139 135 129 124 118 112 108 102 96 88 80 76 74 75 74 67 60 52 47 55 76 102 124 135 147 154 152 144 140 140 143 152 158 161 161 163 162 159 149 145 148 154 158 161 161 158 156 154 156 163 177 183 182 174 159 156 158 167 176 193 198 198 192 185 185 194 205 214 221 231 244 249 251 251 249 248 247 247
162 160 158 157 154 151 148 145 142 137 131 124 116 109 103 99 96 93 88 83 81 80 80 74 67 61 58 66 76 89 107 122 131 135 133 130 132 136 136 141 152 160 162 160 159 156 150 149 153 161 173 175 163 150 147 154 166 178 188 186 184 176 167 162 161 169 185 209 219 222 215 200 188 189 200 203 207 218 237 244 246 245 244 243 244 244
164 161 160 159 157 154 151 146 139 132 122 115 110 106 103 101 98 95 90 85 82 80 81 80 76 69 63 68 76 84 92 100 104 102 97 95 102 118 127 133 142 147 146 144 146 149 150 153 158 165 172 170 156 142 139 153 166 174 177 177 182 185 183 172 170 174 185 201 215 223 226 214 196 188 193 191 196 209 224 233 232 230 228 229 235 239
162 160 158 158 157 153 146 136 127 119 113 110 109 109 109 106 101 96 90 86 84 85 85 85 82 76 69 70 73 76 78 80 79 75 66 56 62 88 112 122 127 128 124 122 131 143 151 159 166 171 171 163 152 144 143 156 165 169 164 166 181 193 191 179 175 177 183 190 199 207 213 211 204 200 201 198 203 210 219 226 226 219 208 201 209 225
161 157 156 153 144 130 119 114 113 113 116 118 118 118 116 114 111 106 100 94 92 93 96 93 90 83 75 70 68 68 66 66 64 60 47 35 39 58 88 103 113 118 120 121 128 143 161 172 179 178 171 155 144 142 146 159 167 168 167 171 177 181 177 176 176 178 180 185 190 196 202 211 214 213 210 209 209 211 216 223 226 220 202 192 192 199
161 158 154 142 126 113 106 108 112 117 121 125 127 128 129 127 126 124 121 115 112 111 113 111 108 103 95 86 77 68 62 63 64 61 51 35 34 46 73 92 105 115 122 126 134 147 172 182 182 171 151 136 135 139 148 158 165 169 172 173 168 160 157 170 171 169 170 175 181 191 201 209 212 212 210 208 209 209 211 215 221 222 218 214 216 217
161 155 143 128 118 113 114 115 119 123 129 131 133 134 136 136 134 133 130 128 128 130 129 127 124 120 115 109 101 89 77 72 72 70 63 43 34 39 62 87 101 111 123 128 135 144 159 164 158 120 102 108 122 136 145 150 158 167 177 178 171 163 161 167 162 157 159 167 173 181 193 203 207 206 201 199 198 198 199 211 219 222 223 223 226 232
152 139 125 120 117 117 119 124 129 134 137 137 137 138 140 141 139 137 134 134 135 137 138 137 131 124 120 120 118 113 103 90 79 72 68 57 46 39 45 76 93 105 120 130 136 140 141 147 157 142 83 83 103 131 145 148 155 165 177 182 182 181 179 158 149 149 159 170 176 182 191 198 200 195 187 191 194 197 198 202 209 216 220 221 223 227
135 127 123 124 127 131 134 138 140 140 140 140 140 142 146 147 146 143 141 139 141 143 147 147 142 135 132 134 132 127 120 110 99 87 79 68 58 50 44 61 80 98 113 126 137 141 144 155 161 152 107 91 101 146 166 159 160 165 172 177 183 191 201 153 143 148 162 173 179 182 185 184 176 169 176 198 209 213 210 206 205 208 210 213 217 221
129 128 131 134 138 142 145 145 145 143 142 143 144 147 151 152 151 148 146 144 145 148 155 157 154 149 146 145 143 139 136 131 125 116 106 93 81 69 58 57 60 65 75 77 88 113 138 148 152 147 130 130 153 194 210 188 176 171 171 171 174 181 201 177 161 158 164 172 175 173 166 157 153 160 191 209 218 221 217 211 206 204 204 205 211 216
137 138 140 143 145 147 148 147 147 147 148 149 150 152 154 155 154 151 148 147 147 150 155 160 160 156 151 148 148 148 149 149 147 142 133 125 118 109 96 77 60 47 35 29 18 12 14 18 30 106 142 154 170 189 207 203 196 188 180 171 169 172 185 191 186 174 168 171 165 155 143 139 148 174 203 213 220 223 221 214 208 204 202 204 208 211
143 145 146 148 149 150 150 151 152 153 153 153 152 153 156 159 159 157 149 149 150 152 156 162 164 161 155 151 151 153 154 154 153 151 146 141 137 131 123 111 94 73 51 37 25 18 19 13 3 347 214 178 177 181 187 191 193 195 190 177 172 174 182 187 182 173 164 158 145 134 133 142 160 184 202 209 217 221 220 214 209 206 203 204 206 209
147 149 151 152 153 154 155 156 157 157 156 153 151 152 156 159 160 158 150 151 152 155 159 164 167 166 161 156 154 153 154 152 150 148 148 147 144 141 136 132 125 115 97 74 46 17 358 338 303 277 263 242 218 196 186 182 183 186 186 180 177 177 182 179 171 161 151 136 123 121 132 153 173 191 199 206 216 223 224 218 211 205 201 200 203 206
152 154 156 156 157 158 158 158 159 159 157 153 151 151 154 157 157 155 150 151 153 157 162 166 169 168 164 157 154 154 156 152 148 146 146 147 147 146 145 144 143 139 134 134 143 166 206 254 253 247 241 238 234 227 214 193 180 175 176 178 177 176 178 174 164 154 145 133 124 122 129 158 193 209 211 214 224 234 239 234 224 212 200 193 194 199
157 158 159 160 160 160 159 160 160 160 158 154 152 151 152 155 155 153 151 154 157 160 164 168 170 170 165 158 156 156 159 153 148 146 146 147 148 149 151 153 153 154 152 153 159 169 181 196 215 226 227 222 219 217 220 209 189 174 173 179 177 172 173 172 161 150 142 137 134 133 140 167 198 211 208 208 219 232 242 241 234 219 198 184 184 191